Weather Roundup
Issued by NWS

Home | Current Version | Previous Version | Graphics & Text | Print | Product List | Glossary Off
Versions: 1 2 3 4 5 6 7 8 9 10 11 12 13 14 15 16 17 18 19 20 21 22 23 24 25 26 27 28 29 30 31 32 33 34 35 36 37 38 39 40 41 42 43 44 45 46 47 48 49 50

000
NZUS93 KARX 250359
HRRWXR

CURRENT HOURLY OBSERVATIONS ACROSS
MUCH OF THE UPPER MISSISSIPPI VALLEY
NATIONAL WEATHER SERVICE LA CROSSE WI
1100 PM CDT THU JUL 24 2014


...SOUTHEAST MINNESOTA...


CITY           SKY/WX    TMP DP  RH WIND       PRES   REMARKS
ROCHESTER      CLEAR     64  58  80 CALM      30.02R
ROCHESTER/MAYO FAIR      68  57  67 S3        30.01R
WINONA         CLEAR     70  63  78 CALM      29.98R
AUSTIN         PTCLDY    63  57  82 CALM      29.99R
ALBERT LEA     PTCLDY    66  59  77 SE6       29.98R
DODGE CENTER   CLEAR     64  59  82 CALM      30.01R
PRESTON        CLEAR     65  62  91 CALM      30.01R
OWATONNA       CLEAR     64  59  82 E3        29.99S
FARIBAULT      PTCLDY    66  57  72 S3        29.99S
$$

...ELSEWHERE IN MINNESOTA...


CITY           SKY/WX    TMP DP  RH WIND       PRES   REMARKS
MINNEAPOLIS    PTCLDY    73  60  63 SW8       29.96R
INTNL FALLS    CLEAR     60  57  89 SE3       29.87F
DULUTH         LGT RAIN  66  56  70 SE7       29.91F
RED WING       CLEAR     66  61  82 CALM      29.96S
REDWOOD FALLS  CLOUDY    67  61  81 SE9       29.89F
MANKATO        CLOUDY    66  57  72 SE8       29.95F
WORTHINGTON    PTCLDY    64  61  88 SE8       29.90R
FAIRMONT       MOCLDY    61  55  82 E6        29.94R
$$

...SOUTHWEST WISCONSIN...


CITY           SKY/WX    TMP DP  RH WIND       PRES   REMARKS
LA CROSSE      CLEAR     70  60  70 SE5       29.97R
PRAIRIE DU CHI CLEAR     68  58  70 CALM      29.99R
BOSCOBEL       CLEAR     65  59  81 CALM      30.00R
LONE ROCK      NOT AVBL
PLATTEVILLE    CLEAR     65  58  79 SE8       30.01S
FORT MC COY    CLEAR     63  56  79 CALM      29.99F
VIROQUA        FAIR      64  60  87 SE5       30.00S
WIS DELLS      CLOUDY    65  56  74 S5        30.02S
$$

...ELSEWHERE IN WISCONSIN...


CITY           SKY/WX    TMP DP  RH WIND       PRES   REMARKS
MILWAUKEE      PTCLDY    62  43  49 S5        30.05R
MADISON        CLEAR     69  57  65 VRB5      30.02S
GREEN BAY      MOCLDY    63  45  51 S8        30.03R
EAU CLAIRE     NOT AVBL
BLACK RVR FLS  FAIR      59  58  96 CALM      29.98S
MEDFORD        MOCLDY    58  56  93 CALM      30.03S
WAUSAU         MOCLDY    66  56  70 E3        30.01R
WIS RAPIDS     PTCLDY    66  55  67 SW3       30.02S
MARSHFIELD     PTCLDY    65  58  78 CALM      30.02R
RICE LAKE      PTCLDY    67  58  73 E5        29.99F
$$

...NORTHEAST IOWA...


CITY           SKY/WX    TMP DP  RH WIND       PRES   REMARKS
WATERLOO       CLEAR     68  59  73 S10       29.96R
DUBUQUE        PTCLDY    63  58  83 S10       30.00S
DECORAH        PTCLDY    64  59  82 SE3       29.99R
MASON CITY     CLEAR     61  60  97 E6        29.98R
CHARLES CITY   CLEAR     64  61  88 SE6       29.99R
OELWEIN        CLEAR     64  61  88 S7        30.00R
$$

...ELSEWHERE IN IOWA...


CITY           SKY/WX    TMP DP  RH WIND       PRES   REMARKS
DES MOINES     PTCLDY    72  59  63 S10       29.91R
IOWA CITY      CLEAR     66  60  81 S5        30.00S
FORT DODGE     CLEAR     63  61  94 SE6       29.94S
MARSHALLTOWN   CLEAR     65  61  87 SE9       29.96R
CEDAR RAPIDS   CLEAR     67  58  72 S8        29.99R
$$

...NORTHERN ILLINOIS...


CITY           SKY/WX    TMP DP  RH WIND       PRES   REMARKS
CHICAGO-OHARE  PTCLDY    61  44  53 S7        30.05F
DUPAGE         CLEAR     60  47  61 SE7       30.05F
CHICAGO-MIDWAY PTCLDY    66  51  58 SE6       30.06F
MOLINE         CLOUDY    65  57  75 S8        30.00F
ROCKFORD       PTCLDY    63  55  75 SE6       30.06F
STERLING       MOCLDY    64  54  68 S7        30.02F
PEORIA         CLOUDY    70  54  56 E6        30.04F
$$

NOTE: "FAIR" INDICATES FEW OR NO CLOUDS BELOW 12,000 FEET WITH NO
SIGNIFICANT WEATHER AND/OR OBSTRUCTIONS TO VISIBILITY. WIND
SPEEDS ARE IN MILES-PER-HOUR.



USA.gov is the U.S. government's official web portal to all federal, state and local government web resources and services.